CAPE
0 0 0 0 0 0 0 0 0 9 2 227 390 913 775 849 600 77 13 0 0 0 0 0 0 0 0 0 0 0 0 0 7 71 133 329 199 500 502 359 67 20 49 3
0 0 0 0 0 0 0 0 0 0 0 109 210 373 469 673 801 496 22 0 0 0 0 0 0 0 0 0 0 0 0 0 0 0 34 159 147 294 391 464 477 315 111 22
0 0 0 0 0 0 0 0 0 0 0 42 156 289 555 514 637 629 490 111 0 0 0 0 0 0 0 0 0 0 0 0 0 0 0 14 9 0 0 0 0 148 306 351
0 0 0 0 0 0 0 0 0 0 1 58 0 166 528 498 580 699 449 183 46 7 0 0 0 0 0 0 0 0 0 0 0 0 0 0 0 0 0 0 0 0 78 142
0 0 0 0 0 0 0 0 0 0 0 0 0 38 270 634 806 463 632 314 71 6 0 0 0 0 0 0 0 0 0 0 0 0 0 0 0 0 0 0 0 0 0 197
0 0 0 0 0 0 0 0 0 0 0 7 0 12 168 418 483 493 315 308 62 6 0 0 0 0 0 0 0 0 0 0 0 0 0 0 11 0 0 0 0 0 0 0
0 0 0 0 0 0 0 0 0 0 0 1 0 87 196 143 159 295 297 224 24 1 0 0 0 0 0 0 0 0 0 0 0 0 0 0 0 0 0 0 0 0 0 0
0 0 0 0 0 0 0 0 0 0 0 0 2 71 120 1 0 1 434 95 7 0 0 0 0 0 0 0 0 0 0 0 0 0 0 0 0 0 0 0 0 0 0 0
0 0 0 0 0 0 0 0 0 0 0 0 0 4 0 0 0 63 102 20 0 0 0 0 0 0 0 0 0 0 0 0 0 0 0 0 0 0 0 3 5 5 13 10
0 0 0 0 0 0 0 0 0 0 0 0 0 0 0 0 0 0 2 0 0 0 0 0 0 0 0 0 0 0 18 22 14 4 0 0 0 1 4 6 5 2 3 1
0 0 0 0 0 0 0 0 0 0 0 0 0 0 0 0 0 0 0 0 0 0 0 0 0 0 0 0 0 14 28 34 25 11 0 0 1 4 3 1 3 3 3 4
0 0 0 0 0 0 0 0 0 0 0 0 0 0 0 0 0 0 0 0 0 0 0 0 0 0 0 0 3 29 41 25 12 5 3 3 1 2 3 2 2 2 3 2
0 0 0 0 0 0 0 0 0 0 0 0 0 0 0 0 0 0 0 0 0 0 0 0 0 0 0 1 20 33 19 2 3 4 3 1 4 4 2 4 4 3 2 1
0 0 0 0 0 0 0 0 0 0 0 0 0 0 0 0 0 0 0 0 0 0 0 0 0 0 13 40 47 59 47 0 2 1 2 16 0 2 1 3 2 0 0 1
0 0 0 0 0 0 0 0 0 0 0 0 0 0 0 0 0 0 0 0 0 0 0 1 23 43 52 47 49 79 15 0 0 0 6 4 1 0 0 0 0 0 0 0
0 0 0 0 0 0 0 0 0 0 0 0 0 0 0 0 0 0 0 0 0 0 3 25 34 42 22 21 53 97 15 0 0 1 2 2 3 0 0 1 1 1 0 0
0 0 0 0 0 0 0 0 0 0 0 0 0 0 0 0 0 0 0 0 0 0 40 58 38 33 56 40 77 19 2 0 0 0 0 4 4 0 0 0 1 0 1 2
0 0 0 0 0 0 0 0 0 0 0 0 0 0 0 0 0 0 0 0 0 17 37 27 25 14 61 26 59 1 0 0 0 0 0 1 4 2 1 0 0 2 2 3
0 0 0 0 0 0 0 0 0 0 0 0 0 0 0 0 0 0 0 0 5 26 33 14 5 9 17 37 40 0 0 0 0 0 0 2 3 1 0 0 0 2 2 3
0 0 0 0 0 0 0 0 0 0 0 0 0 0 0 0 0 0 0 0 4 6 9 7 3 14 9 26 18 0 0 0 0 0 0 2 3 0 0 0 1 3 3 0
0 0 0 0 0 0 0 0 0 0 0 0 0 0 0 0 0 0 2 3 7 14 53 7 0 0 8 3 2 0 0 0 0 0 0 0 2 2 1 4 4 1 0 0
0 0 0 0 0 0 0 0 0 0 0 0 0 0 0 0 0 0 4 11 5 10 2 0 0 0 2 4 0 0 0 0 0 0 0 0 0 0 3 2 0 0 0 1
0 0 0 0 0 0 0 0 0 0 0 0 0 0 0 0 0 7 2 1 6 11 0 2 4 3 1 1 3 0 0 0 0 0 0 1 0 1 3 0 0 0 0 1
0 0 0 0 0 0 0 0 0 0 0 0 0 0 0 0 7 7 1 7 8 1 6 7 5 0 0 2 0 0 0 0 0 0 0 0 1 3 2 5 3 1 1 2
0 0 0 0 0 0 0 0 0 0 0 0 0 0 0 1 4 10 10 5 6 0 2 4 1 2 3 1 0 0 0 0 0 0 0 0 1 2 1 0 0 0 0 0
0 0 0 0 0 0 0 0 0 0 0 0 0 0 0 1 4 17 9 8 1 0 0 0 0 8 0 0 0 0 0 0 0 0 0 0 0 0 0 1 1 0 0 0
CIN
0 0 0 0 0 0 0 0 0 -231 -324 -221 -230 -164 -194 -165 -202 -321 -375 -2 0 0 0 0 0 0 0 0 0 0 0 0 -152 -95 -55 -43 -55 -25 -19 -26 -84 -122 -142 0
0 0 0 0 0 0 0 0 0 0 0 -202 -217 -197 -215 -172 -137 -189 -310 0 0 0 0 0 0 0 0 0 0 0 0 0 0 0 -91 -24 -33 -28 -23 -15 -4 -23 -77 -26
0 0 0 0 0 0 0 0 0 0 0 -221 -157 -130 -131 -174 -149 -152 -146 -196 0 0 0 0 0 0 0 0 0 0 0 0 0 0 0 -58 -33 0 0 0 0 -28 -7 -6
0 0 0 0 0 0 0 0 0 0 -19 -54 0 -16 -97 -133 -139 -114 -138 -162 -221 -226 0 0 0 0 0 0 0 0 0 0 0 0 0 0 0 0 0 0 0 0 -20 -10
0 0 0 0 0 0 0 0 0 0 0 0 0 -64 -132 -131 -57 -112 -73 -101 -179 -294 0 0 0 0 0 0 0 0 0 0 0 0 0 0 0 0 0 0 0 0 0 -6
0 0 0 0 0 0 0 0 0 0 0 -91 0 -71 -77 -96 -115 -92 -117 -117 -209 -201 0 0 0 0 0 0 0 0 0 0 0 0 0 0 -43 -2 0 0 0 0 0 0
0 0 0 0 0 0 0 0 0 0 0 -19 0 -78 -88 -178 -171 -127 -108 -137 -221 -19 0 0 0 0 0 0 0 0 0 0 0 0 0 0 0 0 0 0 0 0 0 0
0 0 0 0 0 0 0 0 0 0 0 0 -73 -53 -78 -29 0 -18 -87 -143 -89 0 0 0 0 0 0 0 0 0 0 0 0 0 0 0 0 0 0 0 0 0 0 0
0 0 0 0 0 0 0 0 0 0 0 0 0 -120 0 0 0 -123 -102 -157 0 0 0 0 0 0 0 0 0 0 0 0 0 0 0 0 0 0 0 -1 0 0 0 0
0 0 0 0 0 0 0 0 0 0 0 0 0 0 0 0 0 0 -131 0 0 0 0 0 0 0 0 0 0 0 -88 -86 -100 -122 0 0 0 0 -1 -1 -2 0 0 0
0 0 0 0 0 0 0 0 0 0 0 0 0 0 0 0 0 0 0 0 0 0 0 0 0 0 0 0 0 -83 -77 -74 -99 -121 0 0 0 0 -1 0 0 0 0 0
0 0 0 0 0 0 0 0 0 0 0 0 0 0 0 0 0 0 0 0 0 0 0 0 0 0 0 0 -55 -70 -64 -97 -99 -91 0 0 0 0 0 0 0 0 0 0
0 0 0 0 0 0 0 0 0 0 0 0 0 0 0 0 0 0 0 0 0 0 0 0 0 0 0 -13 -60 -52 -69 -92 -15 0 0 -1 0 0 0 0 0 0 0 0
0 0 0 0 0 0 0 0 0 0 0 0 0 0 0 0 0 0 0 0 0 0 0 0 0 0 -54 -46 -47 -53 -63 -29 0 -1 -1 0 0 0 0 0 0 0 0 0
0 0 0 0 0 0 0 0 0 0 0 0 0 0 0 0 0 0 0 0 0 0 0 -5 -16 -24 -24 -50 -63 -41 -62 -1 0 -1 0 -1 0 0 0 0 0 0 0 0
0 0 0 0 0 0 0 0 0 0 0 0 0 0 0 0 0 0 0 0 0 0 -21 -22 -22 -28 -51 -55 -52 -8 -38 0 0 0 0 0 0 0 0 0 0 -1 0 0
0 0 0 0 0 0 0 0 0 0 0 0 0 0 0 0 0 0 0 0 0 -6 -17 -10 -15 -29 -17 -28 -1 -21 0 0 0 0 0 0 0 0 0 0 0 0 -1 -1
0 0 0 0 0 0 0 0 0 0 0 0 0 0 0 0 0 0 0 0 -9 -14 -6 -12 -21 -31 -4 -9 0 0 0 0 0 0 0 0 0 0 0 0 0 0 -1 -1
0 0 0 0 0 0 0 0 0 0 0 0 0 0 0 0 0 0 0 0 -3 -1 -2 -18 -58 -34 -17 -4 -1 0 0 0 0 0 0 0 0 0 0 0 0 0 -1 0
0 0 0 0 0 0 0 0 0 0 0 0 0 0 0 0 0 0 0 -1 -7 -24 -27 -34 -22 -6 -18 -8 -5 0 0 0 0 0 0 0 0 0 0 0 -1 0 0 0
0 0 0 0 0 0 0 0 0 0 0 0 0 0 0 0 0 0 0 -1 -1 -1 0 -3 0 -37 -17 -28 -2 0 0 0 0 0 0 0 0 0 0 0 0 -1 0 0
0 0 0 0 0 0 0 0 0 0 0 0 0 0 0 0 0 0 0 0 -1 -2 -1 0 -14 0 -12 -3 0 0 0 0 0 0 0 0 0 0 0 -1 0 0 0 0
0 0 0 0 0 0 0 0 0 0 0 0 0 0 0 0 -1 0 0 0 -1 0 0 -1 -1 -1 -1 0 0 0 0 0 0 0 0 0 -1 -1 -1 -3 0 0 0 0
0 0 0 0 0 0 0 0 0 0 0 0 0 0 0 0 0 0 0 -1 0 -1 0 0 0 0 0 0 0 0 0 0 0 0 0 0 -1 -1 -2 0 0 0 0 0
0 0 0 0 0 0 0 0 0 0 0 0 0 0 0 0 0 0 0 -1 0 0 0 0 0 0 0 0 0 0 0 0 0 0 0 0 -2 -2 -1 -1 0 0 0 0
0 0 0 0 0 0 0 0 0 0 0 0 0 0 0 0 -4 0 0 0 0 -1 0 0 0 -16 0 0 0 0 0 0 0 0 0 0 -3 -4 0 -1 -1 0 0 0
Wind_Speed
14 14 15 15 15 16 17 17 18 17 16 19 18 18 18 19 21 21 24 25 27 26 26 28 29 30 32 33 35 36 37 37 35 33 30 29 27 24 24 25 24 23 21 21
14 14 15 16 18 18 17 17 16 16 16 16 16 16 17 17 18 19 21 22 23 23 25 26 29 29 31 32 34 35 36 36 36 36 34 31 30 29 29 29 29 26 23 22
13 14 15 15 15 15 14 14 13 13 14 17 15 15 14 16 15 15 14 19 21 22 24 25 28 29 31 33 35 36 36 36 37 38 37 36 33 34 33 35 34 32 31 28
13 14 15 16 15 13 13 14 13 14 12 12 11 12 13 14 13 16 16 16 18 20 22 25 27 29 31 33 34 35 36 37 38 38 38 39 39 40 39 38 36 35 30 28
12 13 15 17 20 14 13 14 12 13 14 13 13 10 13 12 11 15 15 16 18 20 24 26 29 30 32 34 36 36 38 39 39 39 40 40 39 38 37 36 36 35 32 28
12 13 14 15 18 17 16 17 17 14 13 14 15 12 14 12 11 12 15 16 19 22 25 27 29 32 35 37 37 37 41 42 41 41 41 41 42 42 42 40 37 35 34 32
12 13 14 16 17 19 15 14 13 13 12 14 15 12 16 13 13 13 17 20 22 24 27 29 32 35 36 39 40 40 41 42 41 42 42 43 42 41 41 41 39 38 35 33
10 9 15 17 15 16 19 18 16 13 13 15 15 15 18 17 17 14 15 18 21 25 27 30 33 36 38 39 40 39 39 40 40 40 42 42 42 41 40 39 38 35 34 32
10 11 12 17 15 13 14 17 17 17 17 14 17 17 16 20 20 18 18 20 24 26 28 31 35 37 38 39 39 38 38 39 39 40 41 42 42 43 43 42 41 37 38 35
12 10 14 14 13 20 15 15 16 17 14 17 17 19 17 22 21 20 20 22 24 26 28 32 35 37 35 35 34 33 34 36 38 40 42 42 43 44 43 41 41 40 38 34
13 14 13 12 17 15 15 16 19 17 16 17 20 20 20 21 21 21 21 22 25 27 30 34 35 35 35 35 34 32 34 37 40 41 41 42 44 44 42 39 38 37 35 33
16 15 14 13 14 15 20 18 18 14 16 17 19 20 21 21 21 21 23 25 27 30 33 34 34 36 38 37 33 33 37 39 39 40 41 42 41 40 38 38 36 35 34 32
15 17 14 13 12 15 19 20 19 17 17 17 18 21 18 20 21 22 24 27 30 32 33 34 37 39 39 34 33 35 36 39 39 40 39 40 38 37 37 37 37 35 34 34
16 17 16 14 15 15 17 22 20 19 18 18 20 20 19 20 22 23 26 29 30 33 35 37 38 38 34 33 34 34 38 39 38 38 38 37 34 34 35 35 35 35 35 35
16 15 15 16 16 18 19 23 24 22 20 21 21 22 21 21 23 25 27 31 33 35 37 37 37 34 34 34 36 37 38 38 37 37 38 36 31 32 34 35 35 35 36 35
16 13 13 16 16 18 21 22 22 22 22 22 22 23 22 22 24 28 31 32 35 36 35 34 34 35 35 35 36 35 37 36 34 36 37 34 30 31 32 34 35 35 36 35
14 10 13 15 13 16 19 23 23 21 22 22 25 24 25 27 30 32 32 33 35 34 32 33 35 34 34 36 34 33 32 31 33 35 35 33 31 31 32 34 35 36 35 34
11 12 15 16 15 15 17 19 20 23 21 22 22 25 27 29 31 30 33 35 34 33 34 34 34 34 32 33 30 29 27 29 32 35 35 33 30 30 32 34 35 34 34 34
14 13 15 15 17 16 16 17 21 22 22 22 24 26 28 30 29 28 36 33 34 34 32 30 29 28 24 19 21 25 26 29 32 34 35 32 31 31 33 34 34 34 33 33
17 17 15 16 16 17 17 17 19 18 21 23 25 28 31 32 36 35 36 34 33 30 25 18 7 3 1 3 20 23 25 28 32 33 32 32 31 30 32 33 34 33 33 34
15 16 17 17 17 17 18 18 18 24 25 23 26 28 31 34 30 31 32 32 28 21 15 10 6 4 5 7 20 24 26 28 28 31 32 31 29 29 29 31 31 30 31 32
15 15 17 17 18 18 21 18 22 20 20 23 26 29 30 29 31 32 28 26 19 16 10 9 10 11 11 20 25 25 27 26 29 30 33 33 32 31 31 32 31 31 30 29
15 15 16 17 17 17 20 21 20 20 21 24 26 29 29 30 31 28 17 19 16 14 14 14 14 16 19 24 24 25 25 26 28 31 33 33 32 31 30 30 29 26 23 21
14 14 16 16 15 16 18 20 21 22 23 24 27 27 28 30 30 26 20 20 19 20 19 15 17 17 19 23 25 25 25 25 28 30 30 31 30 30 28 28 29 30 25 19
14 13 14 16 15 16 17 17 19 22 23 25 27 27 28 28 30 27 23 23 24 23 18 19 16 17 24 24 24 24 24 25 27 28 28 29 28 28 27 27 27 25 21 17
11 13 14 16 14 17 16 16 18 21 23 25 26 25 26 26 26 26 21 23 23 19 16 19 23 27 26 25 24 23 23 24 25 26 26 26 25 25 25 24 25 23 16 15
Wind_Direction
30 42 40 50 56 60 69 70 65 69 76 34 48 46 38 37 36 35 37 39 38 26 30 35 34 31 24 19 18 15 13 14 17 15 9 4 1 355 345 340 337 332 319 317
47 33 42 58 61 61 71 68 63 58 59 55 58 44 35 32 38 40 49 49 43 38 35 21 28 25 23 18 17 14 12 10 10 7 2 357 354 351 347 345 343 342 338 330
42 31 48 52 55 59 71 70 77 66 67 60 66 47 50 34 40 46 48 37 30 32 27 25 22 17 13 12 9 9 7 3 3 360 359 358 355 349 346 341 337 336 335 336
21 21 33 35 42 55 62 61 77 74 76 58 76 51 45 40 38 24 29 30 26 23 17 15 11 6 6 8 10 8 6 3 359 359 356 353 349 344 342 340 337 333 333 332
8 9 16 33 35 53 55 49 72 65 41 57 53 64 45 54 48 25 25 22 18 11 7 2 1 3 4 2 359 2 2 360 358 357 354 351 349 349 349 346 342 339 336 333
348 7 33 41 38 42 66 48 49 53 54 51 45 56 40 46 39 26 13 13 6 1 358 360 1 360 357 357 357 357 355 355 355 355 353 351 348 344 341 341 341 341 338 333
342 3 21 41 50 50 56 52 46 52 62 40 34 41 24 35 30 14 358 353 354 354 354 354 352 351 350 351 352 353 354 354 356 354 352 349 347 346 344 342 340 339 340 338
356 44 357 12 43 43 42 50 48 48 36 26 28 24 16 16 13 18 11 4 357 353 352 351 349 347 348 350 352 354 356 356 356 355 352 351 349 347 345 342 340 340 338 338
351 355 24 10 36 43 43 37 35 25 14 19 14 14 16 12 10 9 6 3 358 353 352 351 350 351 350 351 353 355 355 355 355 354 354 352 350 347 344 340 337 335 333 334
343 355 356 23 41 12 31 39 23 23 23 10 10 4 5 3 4 6 3 359 359 359 358 354 353 353 355 356 357 359 359 358 357 355 354 353 351 349 347 344 341 339 337 336
339 333 352 23 8 18 23 16 12 20 21 13 5 5 9 7 5 7 8 5 1 359 356 353 353 355 356 356 357 358 357 355 354 354 355 354 352 351 352 353 352 351 350 344
326 341 352 11 23 26 10 10 12 25 19 13 6 4 13 15 15 14 10 5 0 355 352 353 354 355 354 354 357 358 356 355 356 356 357 356 357 360 5 4 6 3 0 360
335 331 1 8 21 19 11 7 13 18 17 20 14 9 20 17 14 11 5 1 357 354 355 355 353 352 353 358 359 357 358 357 357 357 359 0 1 6 9 9 11 8 6 7
337 334 343 349 357 15 14 3 16 18 18 19 16 14 14 9 6 5 1 358 357 355 354 353 353 354 359 359 359 360 356 358 359 0 3 6 11 12 11 12 9 8 7 9
337 343 8 15 26 25 21 9 11 18 23 19 18 13 11 7 3 360 357 355 354 353 352 353 355 360 358 359 358 357 0 1 4 7 7 8 17 18 16 19 12 10 11 12
335 360 19 0 27 28 16 14 19 20 22 20 17 11 14 8 2 357 355 354 353 352 354 357 358 358 0 359 357 1 1 6 12 11 11 15 22 21 20 16 13 11 9 8
341 22 3 5 31 18 7 10 15 21 19 17 10 12 9 4 360 357 356 356 353 354 356 357 357 360 360 360 3 5 9 17 17 18 18 20 24 23 21 16 11 10 11 12
6 359 358 4 21 18 18 23 24 17 21 21 20 13 8 4 1 2 2 356 356 358 357 356 356 357 360 4 11 17 25 26 25 24 23 26 29 29 24 20 20 23 26 23
357 3 355 3 8 17 28 28 21 18 18 22 15 11 7 5 5 6 2 6 1 358 358 360 3 7 17 29 36 36 37 32 28 27 26 30 31 31 30 28 26 27 27 27
359 15 5 12 24 26 28 34 28 32 19 21 16 11 8 6 3 2 3 4 2 1 6 20 30 343 349 61 55 54 50 42 34 34 34 35 37 41 40 42 43 45 44 42
340 349 359 11 19 25 32 32 32 16 13 23 18 15 11 8 10 6 9 12 16 25 51 73 82 91 95 87 70 64 54 48 47 41 43 47 54 59 61 57 57 62 62 64
333 336 352 8 14 20 18 32 22 31 35 27 21 16 14 15 13 16 23 30 41 57 86 95 98 99 89 82 72 67 60 58 53 53 50 55 62 65 64 61 65 66 69 70
331 344 356 7 13 30 25 31 41 39 34 26 21 19 20 20 21 30 48 53 63 80 94 100 99 95 89 78 78 72 69 65 60 56 56 61 64 66 68 70 73 79 82 83
352 13 7 23 29 31 31 34 34 32 32 29 25 27 29 27 31 43 61 67 79 87 94 104 96 93 92 85 79 74 74 69 62 61 63 63 67 68 72 75 73 73 78 85
357 30 21 16 31 32 32 38 38 34 32 29 30 34 35 41 44 53 70 79 83 89 101 95 96 93 87 85 80 77 75 70 66 67 68 66 70 71 75 79 78 81 87 93
18 19 15 14 46 27 39 46 45 36 33 31 34 39 43 52 56 61 88 88 93 100 104 90 89 81 82 81 77 77 75 71 71 71 72 71 76 77 81 87 86 90 100 103